Hourly Weather Sneberka

Today, 21 January, Thursday

Time Temperature Precipitation Wind Pressure Humidity
00:00 -20°C° 0 mm 5 mps 745 mmHg 89%
01:00 -19°C° 0 mm 5 mps 745 mmHg 89%
02:00 -19°C° 0 mm 5 mps 744 mmHg 91%
03:00 -18°C° 0.1 mm 5 mps 744 mmHg 92%
04:00 -17°C° 0.1 mm 6 mps 743 mmHg 92%
05:00 -16°C° 0.1 mm 6 mps 743 mmHg 93%
06:00 -16°C° 0.4 mm 6 mps 742 mmHg 93%
07:00 -15°C° 0.4 mm 6 mps 742 mmHg 94%
08:00 -15°C° 0.4 mm 6 mps 741 mmHg 94%
09:00 -14°C° 0.7 mm 6 mps 741 mmHg 94%
10:00 -12°C° 0.7 mm 6 mps 741 mmHg 94%
11:00 -11°C° 0.7 mm 6 mps 741 mmHg 94%
12:00 -10°C° 0.6 mm 6 mps 740 mmHg 95%
13:00 -7°C° 0.6 mm 5 mps 740 mmHg 95%
14:00 -6°C° 0.6 mm 5 mps 740 mmHg 95%
15:00 -5°C° 0.1 mm 5 mps 740 mmHg 95%
16:00 -4°C° 0.1 mm 5 mps 740 mmHg 94%
17:00 -3°C° 0.1 mm 6 mps 740 mmHg 94%
18:00 -3°C° 0 mm 6 mps 740 mmHg 94%
19:00 -3°C° 0 mm 6 mps 740 mmHg 94%
20:00 -3°C° 0 mm 6 mps 740 mmHg 94%
21:00 -2°C° 0 mm 5 mps 740 mmHg 94%
22:00 -2°C° 0 mm 5 mps 740 mmHg 94%
23:00 -2°C° 0 mm 5 mps 740 mmHg 94%

Tomorrow, 22 January, Friday

Time Temperature Precipitation Wind Pressure Humidity
00:00 -4°C° 0 mm 5 mps 740 mmHg 94%
01:00 -4°C° 0 mm 5 mps 740 mmHg 95%
02:00 -5°C° 0 mm 5 mps 740 mmHg 95%
03:00 -6°C° 0 mm 5 mps 740 mmHg 95%
04:00 -5°C° 0 mm 4 mps 740 mmHg 95%
05:00 -7°C° 0 mm 4 mps 739 mmHg 95%
06:00 -7°C° 0 mm 4 mps 739 mmHg 96%
07:00 -7°C° 0 mm 4 mps 739 mmHg 96%
08:00 -7°C° 0 mm 4 mps 739 mmHg 96%
09:00 -5°C° 0 mm 4 mps 739 mmHg 96%
10:00 -5°C° 0 mm 5 mps 739 mmHg 95%
11:00 -4°C° 0 mm 5 mps 739 mmHg 95%
12:00 -4°C° 0 mm 5 mps 739 mmHg 95%
13:00 -2°C° 0 mm 5 mps 738 mmHg 96%
14:00 -2°C° 0 mm 5 mps 738 mmHg 96%
15:00 -2°C° 0.1 mm 5 mps 738 mmHg 96%
16:00 -2°C° 0.1 mm 5 mps 738 mmHg 97%
17:00 -1°C° 0.1 mm 5 mps 737 mmHg 97%
18:00 -1°C° 0 mm 5 mps 737 mmHg 97%
19:00 -1°C° 0 mm 4 mps 737 mmHg 97%
20:00 -1°C° 0 mm 4 mps 737 mmHg 97%
21:00 -1°C° 0 mm 4 mps 737 mmHg 97%
22:00 -1°C° 0 mm 4 mps 737 mmHg 96%
23:00 -1°C° 0 mm 4 mps 737 mmHg 95%

Day after tomorrow, 23 January, Saturday

Time Temperature Precipitation Wind Pressure Humidity
00:00 -1°C° 0 mm 5 mps 737 mmHg 96%
01:00 -1°C° 0 mm 5 mps 737 mmHg 97%
02:00 -1°C° 0 mm 5 mps 737 mmHg 97%
03:00 -1°C° 0 mm 5 mps 737 mmHg 96%
04:00 -1°C° 0 mm 5 mps 737 mmHg 94%
05:00 -1°C° 0 mm 5 mps 737 mmHg 92%
06:00 -2°C° 0 mm 5 mps 737 mmHg 92%
07:00 -2°C° 0 mm 5 mps 737 mmHg 93%
08:00 -2°C° 0 mm 5 mps 737 mmHg 93%
09:00 -2°C° 0 mm 5 mps 738 mmHg 94%
10:00 -2°C° 0 mm 5 mps 738 mmHg 94%
11:00 -2°C° 0 mm 5 mps 738 mmHg 94%
12:00 -2°C° 0.1 mm 5 mps 738 mmHg 96%
13:00 -2°C° 0.1 mm 5 mps 738 mmHg 97%
14:00 -2°C° 0.1 mm 5 mps 738 mmHg 98%
15:00 -1°C° 0 mm 4 mps 738 mmHg 98%
16:00 -1°C° 0 mm 4 mps 738 mmHg 98%
17:00 -1°C° 0 mm 4 mps 738 mmHg 98%
18:00 -1°C° 0.1 mm 4 mps 738 mmHg 98%
19:00 -1°C° 0.1 mm 4 mps 738 mmHg 98%
20:00 -1°C° 0.1 mm 4 mps 738 mmHg 98%
21:00 -1°C° 0 mm 5 mps 738 mmHg 97%
22:00 -2°C° 0 mm 5 mps 738 mmHg 97%
23:00 -2°C° 0 mm 5 mps 738 mmHg 97%

24 January, Sunday

Time Temperature Precipitation Wind Pressure Humidity
00:00 -2°C° 0 mm 5 mps 738 mmHg 97%
01:00 -1°C° 0 mm 5 mps 738 mmHg 97%
02:00 -1°C° 0 mm 4 mps 738 mmHg 98%
03:00 -1°C° 0 mm 5 mps 738 mmHg 98%
04:00 -1°C° 0 mm 5 mps 738 mmHg 98%
05:00 -1°C° 0 mm 5 mps 737 mmHg 98%
06:00 -1°C° 0 mm 5 mps 737 mmHg 98%
07:00 -1°C° 0 mm 5 mps 737 mmHg 98%
08:00 -1°C° 0 mm 5 mps 737 mmHg 98%
09:00 0°C° 0 mm 5 mps 737 mmHg 98%
10:00 0°C° 0 mm 5 mps 737 mmHg 99%
11:00 0°C° 0 mm 5 mps 737 mmHg 99%
12:00 0°C° 0.1 mm 5 mps 736 mmHg 99%
13:00 0°C° 0.1 mm 5 mps 736 mmHg 99%
14:00 0°C° 0.1 mm 5 mps 735 mmHg 99%
15:00 -1°C° 0.4 mm 6 mps 735 mmHg 99%
16:00 -1°C° 0.4 mm 6 mps 735 mmHg 99%
17:00 -1°C° 0.4 mm 6 mps 735 mmHg 99%
18:00 -1°C° 0.2 mm 6 mps 734 mmHg 99%
19:00 -1°C° 0.2 mm 7 mps 734 mmHg 98%
20:00 0°C° 0.2 mm 7 mps 734 mmHg 98%
21:00 0°C° 0.2 mm 7 mps 733 mmHg 97%
22:00 0°C° 0.2 mm 8 mps 733 mmHg 97%
23:00 0°C° 0.2 mm 8 mps 733 mmHg 96%

25 January, Monday

Time Temperature Precipitation Wind Pressure Humidity
00:00 0°C° 0 mm 8 mps 733 mmHg 96%
01:00 -1°C° 0 mm 7 mps 734 mmHg 96%
02:00 -1°C° 0 mm 7 mps 734 mmHg 95%
03:00 -1°C° 0 mm 7 mps 734 mmHg 95%
04:00 -1°C° 0 mm 7 mps 734 mmHg 95%
05:00 -1°C° 0 mm 6 mps 735 mmHg 95%
06:00 0°C° 0 mm 5 mps 735 mmHg 96%
07:00 0°C° 0 mm 5 mps 735 mmHg 97%
08:00 -1°C° 0 mm 4 mps 736 mmHg 98%
09:00 0°C° 0 mm 3 mps 736 mmHg 98%
10:00 +1°C° 0 mm 3 mps 736 mmHg 99%
11:00 +1°C° 0 mm 3 mps 737 mmHg 99%
12:00 +1°C° 0 mm 3 mps 737 mmHg 99%
13:00 +1°C° 0 mm 3 mps 737 mmHg 99%
14:00 +2°C° 0 mm 2 mps 737 mmHg 99%
15:00 0°C° 0 mm 3 mps 737 mmHg 99%
16:00 0°C° 0 mm 3 mps 737 mmHg 99%
17:00 0°C° 0 mm 3 mps 737 mmHg 99%
18:00 +1°C° 0 mm 3 mps 736 mmHg 98%
19:00 0°C° 0 mm 4 mps 736 mmHg 98%
20:00 0°C° 0 mm 4 mps 736 mmHg 98%
21:00 0°C° 0 mm 5 mps 736 mmHg 97%
22:00 0°C° 0 mm 5 mps 735 mmHg 97%
23:00 0°C° 0 mm 5 mps 735 mmHg 96%

26 January, Tuesday

Time Temperature Precipitation Wind Pressure Humidity
00:00 -1°C° 0.5 mm 6 mps 734 mmHg 96%
01:00 +1°C° 0.5 mm 6 mps 733 mmHg 96%
02:00 0°C° 0.5 mm 7 mps 732 mmHg 96%
03:00 0°C° 0.2 mm 7 mps 732 mmHg 96%
04:00 -1°C° 0.2 mm 7 mps 731 mmHg 96%
05:00 -1°C° 0.2 mm 8 mps 730 mmHg 95%
06:00 -1°C° 0.7 mm 7 mps 729 mmHg 96%
07:00 -1°C° 0.7 mm 7 mps 729 mmHg 96%
08:00 -1°C° 0.7 mm 7 mps 729 mmHg 97%
09:00 -1°C° 0.2 mm 7 mps 728 mmHg 97%
10:00 -1°C° 0.2 mm 7 mps 728 mmHg 97%
11:00 -2°C° 0.2 mm 7 mps 728 mmHg 97%
12:00 -2°C° 0.2 mm 7 mps 727 mmHg 97%
13:00 -2°C° 0.2 mm 7 mps 727 mmHg 96%
14:00 -2°C° 0.2 mm 7 mps 727 mmHg 96%
15:00 -3°C° 0.2 mm 7 mps 727 mmHg 96%
16:00 -3°C° 0.2 mm 7 mps 727 mmHg 95%
17:00 -3°C° 0.2 mm 7 mps 727 mmHg 94%
18:00 -3°C° 0.3 mm 7 mps 727 mmHg 95%
19:00 -3°C° 0.3 mm 7 mps 727 mmHg 95%
20:00 -3°C° 0.3 mm 7 mps 727 mmHg 95%
21:00 -3°C° 0.5 mm 7 mps 727 mmHg 96%
22:00 -3°C° 0.5 mm 7 mps 728 mmHg 96%
23:00 -3°C° 0.5 mm 7 mps 728 mmHg 96%
Show more